Regional Weather Roundup
Issued by NWS Jackson, KY

Home | Current Version | Previous Version | Text Only | Print | Product List | Glossary Off
Versions: 1 2 3 4 5 6 7 8 9 10 11 12 13 14 15 16 17 18 19 20 21 22 23 24 25 26 27

000
ASUS43 KJKL 212310
RWRJKL

EAST KENTUCKY HOURLY WEATHER ROUNDUP
NATIONAL WEATHER SERVICE JACKSON KY
600 PM EST SAT JAN 21 2017

NOTE: "FAIR" INDICATES FEW OR NO CLOUDS BELOW 12,000 FEET WITH
NO SIGNIFICANT WEATHER AND/OR OBSTRUCTIONS TO VISIBILITY.

* THESE REPORTS ARE NOT UNDER NWS QUALITY CONTROL AND MAY NOT
  REPORT WEATHER SUCH AS PRECIPITATION AND FOG.

KYZ079-080-083-085-087-088-110-112-115-119-120-220000
...EASTERN KENTUCKY...

CITY           SKY/WX    TMP DP  RH WIND       PRES   REMARKS
JACKSON        CLOUDY    59  51  75 CALM      29.67S
LONDON         CLOUDY    58  52  80 CALM      29.66S
SOMERSET*      PTCLDY    55  50  82 CALM      29.66F
MONTICELLO*    CLEAR     57  50  77 VRB7      29.66F
WILLIAMSBURG*  CLEAR     55  54  94 E5        29.65F
MIDDLESBORO*   CLOUDY    55  53  91 CALM      29.67S
HARLAN APT*    CLOUDY    55  50  82 CALM      29.67S
PIKE CO APT*   DRIZZLE   56  54  90 E3        29.67F
BIG SANDY APT* CLOUDY    57  53  85 CALM      29.67F
MOREHEAD APT*  CLOUDY    59  50  72 N5        29.67F
ASHLAND*       CLOUDY    57  54  88 E3        29.65F
$$

KYZ035-036-041-042-044-050-067-078-099-220000
...CENTRAL KENTUCKY...

CITY           SKY/WX    TMP DP  RH WIND       PRES   REMARKS
MT STERLING*   CLOUDY    57  50  77 CALM      29.68S
FLEMING/MASON* CLOUDY    58  53  85 CALM      29.67S
DANVILLE*      CLEAR     55  48  76 CALM      29.66F
LEXINGTON      CLEAR     60  50  69 S5        29.66R
FRANKFORT      MOCLDY    62  51  67 SE6       29.63R
LOUISVILLE     MOCLDY    64  49  57 S6        29.61R
LEBANON*         N/A     59  46  63 S3        29.64S
GLASGOW*       PTCLDY    60  49  67 E3        29.62F
BOWLING GREEN  CLOUDY    62  48  60 SE5       29.62S
$$

KYZ091>093-OHZ055-061-077-WVZ005-015-034-035-042-220000
...SOUTHERN OHIO/WEST VIRGINIA...

CITY           SKY/WX    TMP DP  RH WIND       PRES   REMARKS
COVINGTON      CLOUDY    60  54  80 S8        29.62F
COLUMBUS       CLOUDY    59  51  75 SE7       29.66S
DAYTON         CLOUDY    57  51  80 S10       29.63R
WILMINGTON     MOCLDY    57  53  86 S8        29.64S
HUNTINGTON     CLOUDY    59  52  77 N6        29.67F
CHARLESTON     CLOUDY    62  49  62 W3        29.70R
BECKLEY        CLOUDY    54  45  71 SE6       29.71S
BLUEFIELD      CLOUDY    54  45  71 CALM      29.72F
LOGAN CO APT*  CLOUDY    59  50  72 CALM      29.71R
$$

VAZ002-007-008-TNZ017-027-036-066-071-220000
...SOUTHWEST VIRGINIA/EAST TENNESSEE...

CITY           SKY/WX    TMP DP  RH WIND       PRES   REMARKS
WISE*          CLOUDY    55  45  67 E5        29.69F
JONESVILLE*    CLOUDY    55  54  94 CALM      29.69R
ABINGDON*      CLOUDY    58  52  81 NE7       29.68S
BRISTOL        CLOUDY    57  52  83 CALM      29.67S
MORRISTOWN*    CLOUDY    55  52  88 E3        29.64S
SEVIERVILLE*   MOCLDY    54  52  94 SW3       29.65R
KNOXVILLE      CLOUDY    57  51  80 NE6       29.64S
LAFOLLETTE*    MOCLDY    55  52  88 CALM      29.68F
OAK RIDGE      CLOUDY    59  51  75 CALM      29.66S
CROSSVILLE     CLEAR     56  46  69 MISG      29.66F
NASHVILLE      MOCLDY    64  48  56 S6        29.62R
$$

...KEY TO REMARKS...
VSB - VISIBILITY IN MILES
WCI - WIND CHILL INDEX
HX  - HEAT INDEX

$$




USA.gov is the U.S. government's official web portal to all federal, state and local government web resources and services.